Terminal Aerodrome Forecast
Issued by NWS Cleveland, OH

Home | Current Version | Previous Version | Graphics & Text | Print | Product List | Glossary On
Versions: 1 2 3 4 5 6 7 8 9 10 11 12 13 14 15 16 17 18
000
FTUS41 KCLE 260900 AAA
TAFERI
TAF AMD
KERI 260950Z 2610/2706 19008KT P6SM BKN028
     FM261100 20008KT P6SM SKC
     FM261500 20012G20KT P6SM SCT250
     FM270000 20001KT P6SM BKN250=

USA.gov is the U.S. government's official web portal to all federal, state and local government web resources and services.